TimeMST,TemperatureF,Dew PointF,Humidity,Sea Level PressureIn,VisibilityMPH,Wind Direction,Wind SpeedMPH,Gust SpeedMPH,PrecipitationIn,Events,Conditions,WindDirDegrees,DateUTC
12:15 AM,3.2,1.4,92,30.41,3.0,Calm,Calm,-,N/A,,Clear,0,2013-01-21 07:15:00
12:35 AM,1.4,-0.4,92,30.41,3.0,ESE,5.8,-,N/A,,Clear,120,2013-01-21 07:35:00
12:55 AM,3.2,-0.4,85,30.41,5.0,East,3.5,-,N/A,,Clear,100,2013-01-21 07:55:00
1:15 AM,1.4,-0.4,92,30.41,5.0,Calm,Calm,-,N/A,,Clear,0,2013-01-21 08:15:00
1:35 AM,3.2,1.4,92,30.41,5.0,Calm,Calm,-,N/A,,Clear,0,2013-01-21 08:35:00
2:15 AM,-0.4,-5.8,78,30.41,4.0,Calm,Calm,-,N/A,,Clear,0,2013-01-21 09:15:00
2:35 AM,-4.0,-5.8,92,30.41,5.0,Calm,Calm,-,N/A,,Clear,0,2013-01-21 09:35:00
2:55 AM,-0.4,-4.0,85,30.42,4.0,Calm,Calm,-,N/A,,Clear,0,2013-01-21 09:55:00
3:15 AM,-2.2,-5.8,85,30.42,5.0,Calm,Calm,-,N/A,,Clear,0,2013-01-21 10:15:00
3:35 AM,-2.2,-5.8,85,30.41,5.0,Calm,Calm,-,N/A,,Clear,0,2013-01-21 10:35:00
3:55 AM,-0.4,-4.0,85,30.41,7.0,Calm,Calm,-,N/A,,Clear,0,2013-01-21 10:55:00
4:15 AM,-4.0,-5.8,92,30.41,7.0,Calm,Calm,-,N/A,,Clear,0,2013-01-21 11:15:00
4:55 AM,-0.4,-4.0,85,30.43,3.0,Calm,Calm,-,N/A,,Clear,0,2013-01-21 11:55:00
5:15 AM,-4.0,-7.6,85,30.42,4.0,Calm,Calm,-,N/A,,Haze,0,2013-01-21 12:15:00
5:35 AM,-4.0,-7.6,85,30.43,3.0,Calm,Calm,-,N/A,,Clear,0,2013-01-21 12:35:00
5:55 AM,-4.0,-7.6,85,30.42,3.0,Calm,Calm,-,N/A,,Clear,0,2013-01-21 12:55:00
6:15 AM,-4.0,-5.8,92,30.43,7.0,Calm,Calm,-,N/A,,Clear,0,2013-01-21 13:15:00
6:35 AM,-5.8,-9.4,84,30.42,10.0,Calm,Calm,-,N/A,,Clear,0,2013-01-21 13:35:00
6:55 AM,-5.8,-9.4,84,30.43,5.0,Calm,Calm,-,N/A,,Clear,0,2013-01-21 13:55:00
7:15 AM,-4.0,-7.6,85,30.43,5.0,Calm,Calm,-,N/A,,Clear,0,2013-01-21 14:15:00
7:35 AM,-4.0,-7.6,85,30.43,5.0,Calm,Calm,-,N/A,,Clear,0,2013-01-21 14:35:00
7:55 AM,-4.0,-7.6,85,30.43,5.0,Calm,Calm,-,N/A,,Clear,0,2013-01-21 14:55:00
8:15 AM,-4.0,-7.6,85,30.43,7.0,Calm,Calm,-,N/A,,Clear,0,2013-01-21 15:15:00
8:35 AM,-0.4,-4.0,85,30.44,7.0,Calm,Calm,-,N/A,,Clear,0,2013-01-21 15:35:00
8:55 AM,3.2,-0.4,85,30.44,4.0,Calm,Calm,-,N/A,,Clear,0,2013-01-21 15:55:00
9:15 AM,5.0,1.4,85,30.46,4.0,Calm,Calm,-,N/A,,Clear,0,2013-01-21 16:15:00
9:35 AM,8.6,5.0,85,30.45,3.0,Calm,Calm,-,N/A,,Clear,0,2013-01-21 16:35:00
9:55 AM,10.4,8.6,92,30.46,4.0,Calm,Calm,-,N/A,,Clear,0,2013-01-21 16:55:00
10:15 AM,14.0,12.2,93,30.45,4.0,East,4.6,-,N/A,,Clear,100,2013-01-21 17:15:00
10:35 AM,15.8,14.0,93,30.45,7.0,Calm,Calm,-,N/A,,Clear,0,2013-01-21 17:35:00
10:55 AM,14.0,10.4,86,30.45,4.0,Calm,Calm,-,N/A,,Clear,0,2013-01-21 17:55:00
11:15 AM,17.6,12.2,79,30.45,5.0,Calm,Calm,-,N/A,,Haze,0,2013-01-21 18:15:00
11:35 AM,19.4,10.4,68,30.43,5.0,Calm,Calm,-,N/A,,Haze,0,2013-01-21 18:35:00
11:55 AM,21.2,10.4,63,30.42,7.0,Calm,Calm,-,N/A,,Clear,0,2013-01-21 18:55:00
12:15 PM,21.2,10.4,63,30.40,10.0,Calm,Calm,-,N/A,,Clear,0,2013-01-21 19:15:00
12:35 PM,21.2,10.4,63,30.39,10.0,Calm,Calm,-,N/A,,Clear,0,2013-01-21 19:35:00
12:55 PM,26.6,12.2,55,30.38,10.0,Calm,Calm,-,N/A,,Clear,0,2013-01-21 19:55:00
1:15 PM,24.8,12.2,59,30.37,10.0,Calm,Calm,-,N/A,,Clear,0,2013-01-21 20:15:00
1:35 PM,26.6,12.2,55,30.36,10.0,Calm,Calm,-,N/A,,Clear,0,2013-01-21 20:35:00
1:55 PM,26.6,12.2,55,30.35,10.0,Calm,Calm,-,N/A,,Clear,0,2013-01-21 20:55:00
2:15 PM,26.6,12.2,55,30.35,10.0,Calm,Calm,-,N/A,,Clear,0,2013-01-21 21:15:00
2:35 PM,26.6,12.2,55,30.35,10.0,Calm,Calm,-,N/A,,Clear,0,2013-01-21 21:35:00
2:55 PM,28.4,12.2,51,30.35,10.0,Calm,Calm,-,N/A,,Clear,0,2013-01-21 21:55:00
3:15 PM,30.2,12.2,47,30.35,10.0,Calm,Calm,-,N/A,,Clear,0,2013-01-21 22:15:00
3:55 PM,32.0,14.0,48,30.35,10.0,Calm,Calm,-,N/A,,Clear,0,2013-01-21 22:55:00
4:15 PM,28.4,14.0,55,30.35,10.0,Calm,Calm,-,N/A,,Clear,0,2013-01-21 23:15:00
4:35 PM,28.4,12.2,51,30.34,10.0,Calm,Calm,-,N/A,,Clear,0,2013-01-21 23:35:00
4:55 PM,26.6,12.2,55,30.34,10.0,Calm,Calm,-,N/A,,Clear,0,2013-01-21 23:55:00
5:15 PM,19.4,10.4,68,30.33,10.0,Calm,Calm,-,N/A,,Clear,0,2013-01-22 00:15:00
5:35 PM,15.8,8.6,73,30.33,10.0,Calm,Calm,-,N/A,,Clear,0,2013-01-22 00:35:00
5:55 PM,14.0,8.6,79,30.33,10.0,Calm,Calm,-,N/A,,Clear,0,2013-01-22 00:55:00
6:15 PM,8.6,5.0,85,30.33,10.0,ESE,4.6,-,N/A,,Clear,120,2013-01-22 01:15:00
6:35 PM,10.4,5.0,79,30.34,10.0,Calm,Calm,-,N/A,,Clear,0,2013-01-22 01:35:00
6:55 PM,10.4,5.0,79,30.34,10.0,Calm,Calm,-,N/A,,Clear,0,2013-01-22 01:55:00
7:15 PM,14.0,10.4,86,30.34,10.0,Calm,Calm,-,N/A,,Clear,0,2013-01-22 02:15:00
7:35 PM,10.4,5.0,79,30.34,10.0,Calm,Calm,-,N/A,,Clear,0,2013-01-22 02:35:00
7:55 PM,6.8,1.4,79,30.34,10.0,Calm,Calm,-,N/A,,Clear,0,2013-01-22 02:55:00
8:15 PM,8.6,3.2,79,30.34,10.0,Calm,Calm,-,N/A,,Clear,0,2013-01-22 03:15:00
8:35 PM,5.0,-0.4,78,30.35,10.0,Calm,Calm,-,N/A,,Clear,0,2013-01-22 03:35:00
8:55 PM,5.0,1.4,85,30.35,10.0,Calm,Calm,-,N/A,,Clear,0,2013-01-22 03:55:00
9:15 PM,5.0,1.4,85,30.35,10.0,Calm,Calm,-,N/A,,Clear,0,2013-01-22 04:15:00
9:35 PM,3.2,-0.4,85,30.36,10.0,Calm,Calm,-,N/A,,Clear,0,2013-01-22 04:35:00
9:55 PM,3.2,1.4,92,30.37,7.0,Calm,Calm,-,N/A,,Clear,0,2013-01-22 04:55:00
10:15 PM,5.0,1.4,85,30.37,5.0,Calm,Calm,-,N/A,,Clear,0,2013-01-22 05:15:00
10:55 PM,3.2,-0.4,85,30.38,5.0,Calm,Calm,-,N/A,,Clear,0,2013-01-22 05:55:00
11:15 PM,1.4,-0.4,92,30.38,7.0,Calm,Calm,-,N/A,,Clear,0,2013-01-22 06:15:00
11:35 PM,3.2,1.4,92,30.38,7.0,Calm,Calm,-,N/A,,Clear,0,2013-01-22 06:35:00
11:55 PM,-0.4,-4.0,85,30.38,10.0,Calm,Calm,-,N/A,,Clear,0,2013-01-22 06:55:00